Location: Archemont
(49.1579°N, 1.7598°E)
Time: 10:33:13
(UTC+00:00)

ATLAS 2AS CENTAUR R/B - Pass Details

Date: 03 February 2023
Orbit: 986 x 1226 km, 63.7° (Epoch: 27 March)

Event Time Altitude Azimuth Distance (km) Brightness Sun altitude
Rises 18:21:51 0° 317° (NW) 3,975 6.2 -14.8°
Reaches altitude 10° 18:24:38 10° 314° (NW) 2,977 5.6 -15.2°
Maximum altitude 18:31:31 60° 237° (WSW) 1,200 3.2 -16.4°
Drops below altitude 10° 18:37:59 10° 159° (SSE) 2,803 4.7 -17.4°
Sets 18:40:33 0° 156° (SSE) 3,727 5.4 -17.8°
